Zurück zum Katalog

STARLINK-34981

AktivKommunikationVLEO
NORAD 65198·PAYLOAD·🇺🇸 United States

Gestartet Aug 14, 2025 von Cape Canaveral Space Force Station

Loading…

Nächste Überflüge (nächste 24 Stunden)

TLE

AktuellSource: CelesTrak SupGP

Epoche: Sep 14, 2026, 22:56 UTC

1 65198C 25176A   26257.95604167 -.00001318  00000+0 -38947-4 0  2576
2 65198  53.1592 355.3391 0001171  84.9116 271.5146 15.34390079    12

Verfolge STARLINK-34981 in Echtzeit mit AllMySat

Download on the App Store